This demonstration page uses our WeatherBlox Daily Observations layout. Learn more.

Left ArrowRight Arrow

41.86663, -103.66717

Hourly Observations for July 5, 2020

Temp ( °F °C ) Dew Point ( °F °C ) Humidity (%) Winds ( mph kmh ) Pressure ( in mb ) Visibility ( mi km ) Precip ( " mm )
12:53 am 00:53 Clear 66 18.9 56 13.3 70 70 undefined N/A 29.91 1013 10 16.0934 0 0
1:53 am 01:53 Clear 67 19.4 55 12.8 66 66 undefined N/A 29.89 1012 10 16.0934 0 0
2:53 am 02:53 Clear 63 17.2 56 13.3 78 78 ENE 6 9 29.88 1012 10 16.0934 0 0
3:53 am 03:53 Clear 64 17.8 56 13.3 75 75 E 7 11 29.88 1012 10 16.0934 0 0
4:53 am 04:53 Clear 64 17.8 55 12.8 73 73 SE 5 7 29.88 1012 10 16.0934 0 0
5:53 am 05:53 Sunny 62 16.7 56 13.3 80 80 E 6 9 29.9 1013 10 16.0934 0 0
6:53 am 06:53 Sunny 66 18.9 57 13.9 73 73 E 7 11 29.9 1013 10 16.0934 0 0
7:53 am 07:53 Sunny 71 21.7 58 14.4 63 63 ESE 10 17 29.91 1013 10 16.0934 0 0
8:53 am 08:53 Sunny 78 25.6 57 13.9 48 48 SE 12 19 29.89 1012 10 16.0934 0 0
9:53 am 09:53 Sunny 82 27.8 59 15 46 46 ESE 8 13 29.88 1012 10 16.0934 0 0
10:53 am 10:53 Sunny 87 30.6 60 15.6 40 40 E 12 19 29.86 1011 10 16.0934 0 0
11:53 am 11:53 Sunny 93 33.9 51 10.6 24 24 S 9 15 29.85 1011 10 16.0934 0 0
12:53 pm 12:53 Sunny 95 35 49 9.4 21 21 SSE 9 15 29.83 1010 10 16.0934 0 0
1:53 pm 13:53 Sunny 97 36.1 49 9.4 20 20 S 15 24 29.82 1010 10 16.0934 0 0
2:53 pm 14:53 Sunny 98 36.7 47 8.3 17 17 S 10 17 29.8 1009 10 16.0934 0 0
3:53 pm 15:53 Sunny 96 35.6 45 7.2 17 17 S 12 19 29.78 1008 10 16.0934 0 0
4:53 pm 16:53 Sunny 91 32.8 48 8.9 23 23 S 10 17 29.79 1009 10 16.0934 0 0
5:33 pm 17:33 Partly Cloudy 85 29.4 47 8.3 27 27 SW 18 30 29.65 1004 10 16.0934 0 0
5:53 pm 17:53 Mostly Sunny 84 28.9 45 7.2 25 25 WSW 30 48 29.83 1010 10 16.0934 0 0
6:53 pm 18:53 Mostly Cloudy with Light Rain 78 25.6 50 10 37 37 SW 20 31 29.87 1012 10 16.0934 0.001 0.001
7:53 pm 19:53 Mostly Cloudy 80 26.7 51 10.6 37 37 WNW 6 9 29.88 1012 10 16.0934 0.001 0.001
8:53 pm 20:53 Clear 74 23.3 53 11.7 48 48 ENE 6 9 29.87 1012 10 16.0934 0 0
9:53 pm 21:53 Clear 71 21.7 52 11.1 51 51 NNE 14 22 29.88 1012 10 16.0934 0 0
10:53 pm 22:53 Clear 68 20 54 12.2 61 61 SSE 8 13 29.89 1012 10 16.0934 0 0
11:53 pm 23:53 Clear 65 18.3 53 11.7 66 66 S 7 11 29.88 1012 10 16.0934 0 0

Powered by AerisWeather